Weather reports worldwide

Advertisment
Aachen-Orsbach, Germany (10505): temperature & dewpoint: 13.12.2018 05:00:00 - 19.12.2018 05:00:00 (CET)Aachen-Orsbach, Germany (10505): temperature 5cm & temperature -5cm: 13.12.2018 05:00:00 - 19.12.2018 05:00:00 (CET)Aachen-Orsbach, Germany (10505): temperature -20cm & temperature -100cm: 13.12.2018 05:00:00 - 19.12.2018 05:00:00 (CET)Aachen-Orsbach, Germany (10505): wind speed & gusts: 13.12.2018 05:00:00 - 19.12.2018 05:00:00 (CET)Aachen-Orsbach, Germany (10505): wind direction: 13.12.2018 05:00:00 - 19.12.2018 05:00:00 (CET)Aachen-Orsbach, Germany (10505): reduced air pressure: 13.12.2018 05:00:00 - 19.12.2018 05:00:00 (CET)Aachen-Orsbach, Germany (10505): visibility: 13.12.2018 05:00:00 - 19.12.2018 05:00:00 (CET)Aachen-Orsbach, Germany (10505): sunshine duration: 13.12.2018 05:00:00 - 19.12.2018 05:00:00 (CET)Aachen-Orsbach, Germany (10505): precipitation: 13.12.2018 05:00:00 - 19.12.2018 05:00:00 (CET)
Date & Time tt [°C] td [°C] tt 5cm [°C] tt -5cm [°C] tt -20cm [°C] tt -100cm [°C] ff [km/h] ff [kn] fx [km/h] fx [kn] dd ppp [hPa] vv [km] sd [min] rr [mm]
19.12.2018 05:00:00 6,8 3,0 6,4 3,5 3,6 8,1 26 14 44 24 SSW 1010,5 73 0 0,0
19.12.2018 04:00:00 6,5 1,5 5,7 3,3 3,6 8,1 22 12 43 23 SSW 1010,7 66 0 0,0
19.12.2018 03:00:00 6,8 0,7 6,2 3,2 3,5 8,1 31 17 49 26 S 1010,9 65 0 0,0
19.12.2018 02:00:00 6,9 0,2 6,1 3,0 3,5 8,1 31 17 48 26 S 1010,8 75 0 0,0
19.12.2018 01:00:00 6,4 -0,2 5,7 2,9 3,5 8,1 31 17 55 30 S 1011,2 75 0 0,0
19.12.2018 00:00:00 6,8 -0,3 5,7 2,7 3,6 8,1 27 15 44 24 S 1011,0 75 0 0,0
18.12.2018 23:00:00 7,2 -0,7 5,6 2,4 3,6 8,1 12 6 30 16 S 1012,1 75 0 0,0
18.12.2018 22:00:00 6,6 -0,7 5,2 2,0 3,7 8,1 21 11 34 18 SE 1012,4 75 0 0,0
18.12.2018 21:00:00 5,6 -1,7 2,9 1,9 3,8 8,1 11 6 19 10 SE 1014,1 75 0 0,0
18.12.2018 20:00:00 5,7 -2,0 2,3 2,2 3,9 8,1 13 7 29 16 ESE 1014,5 75 0 0,0
18.12.2018 19:00:00 5,7 -1,1 3,1 2,4 4,0 8,1 22 12 32 17 ESE 1015,0 75 0 0,0
18.12.2018 18:00:00 5,2 -0,3 2,2 3,0 4,0 8,2 13 7 20 11 ESE 1016,6 63 0 0,0
18.12.2018 17:00:00 4,5 0,3 1,2 3,8 3,9 8,2 10 5 19 11 ESE 1017,4 50 0 0,0
18.12.2018 16:00:00 6,0 1,3 4,3 4,8 3,8 8,2 17 9 28 15 ESE 1017,6 50 2 0,0
18.12.2018 15:00:00 6,5 1,5 6,2 5,5 3,6 8,2 17 9 32 17 SE 1018,6 50 51 0,0
18.12.2018 14:00:00 6,7 2,5 6,9 5,8 3,4 8,2 19 11 30 16 SSE 1019,5 50 60 0,0
18.12.2018 13:00:00 7,8 2,8 8,0 5,4 3,3 8,2 8 5 17 9 SSW 1020,4 50 59 0,0
18.12.2018 12:00:00 7,4 3,0 7,4 4,3 3,2 8,2 10 6 24 13 S 1021,1 50 35 0,0
18.12.2018 11:00:00 6,5 3,1 6,8 3,5 3,2 8,2 14 8 37 20 SE 1022,2 50 60 0,0
18.12.2018 10:00:00 5,9 2,8 5,2 2,6 3,2 8,2 27 14 40 21 S 1022,6 50 42 0,0
18.12.2018 09:00:00 5,3 2,7 4,1 2,3 3,2 8,2 27 15 40 21 S 1023,1 50 0 0,0
18.12.2018 08:00:00 5,2 2,7 3,8 2,3 3,2 8,2 22 12 36 19 S 1023,5 50 0 0,0
18.12.2018 07:00:00 5,6 2,4 4,2 2,3 3,2 8,2 26 14 40 22 SSW 1023,7 50 0 0,0
18.12.2018 06:00:00 5,5 2,4 4,1 2,3 3,3 8,3 25 14 34 18 S 1023,7 50 0 0,0
18.12.2018 05:00:00 5,1 2,5 3,7 2,3 3,3 8,3 24 13 37 20 SSW 1024,2 51 0 0,0
18.12.2018 04:00:00 5,1 2,5 3,7 2,4 3,3 8,3 22 12 38 20 SSW 1024,7 54 0 0,0
18.12.2018 03:00:00 4,9 2,6 4,1 2,4 3,3 8,3 21 12 38 20 SSW 1025,3 41 0 0,0
18.12.2018 02:00:00 5,0 2,4 3,9 2,6 3,3 8,3 23 13 40 22 SSW 1025,0 42 0 0,0
18.12.2018 01:00:00 5,0 2,7 3,8 2,7 3,3 8,3 25 13 37 20 SSW 1025,3 35 0 0,0
18.12.2018 00:00:00 5,3 3,2 4,3 2,9 3,3 8,3 26 14 40 21 SSW 1025,5 26 0 0,0
17.12.2018 23:00:00 5,1 3,4 4,0 2,7 3,3 8,3 21 11 34 18 SSW 1025,4 24 0 0,0
17.12.2018 22:00:00 4,9 3,5 3,8 2,7 3,3 8,3 23 12 33 18 SW 1025,2 18 0 0,0
17.12.2018 21:00:00 5,1 3,6 4,0 2,9 3,3 8,3 22 12 33 18 SW 1024,7 27 0 0,0
17.12.2018 20:00:00 4,9 3,5 3,7 3,1 3,3 8,3 22 12 34 18 SW 1024,3 25 0 0,0
17.12.2018 19:00:00 5,2 3,5 4,0 3,4 3,3 8,4 19 10 34 18 SW 1023,7 32 0 0,0
17.12.2018 18:00:00 5,1 3,2 4,0 3,5 3,2 8,4 20 11 37 20 SW 1023,1 35 0 0,0
17.12.2018 17:00:00 5,8 3,6 5,1 3,8 3,1 8,4 21 11 33 18 WSW 1022,4 35 4 0,0
17.12.2018 16:00:00 6,2 3,4 5,5 4,4 2,9 8,4 21 11 33 18 WSW 1021,5 40 14 0,0
17.12.2018 15:00:00 6,9 3,6 6,7 4,7 2,7 8,4 23 12 44 24 WSW 1020,5 40 0 0,0
17.12.2018 14:00:00 7,0 3,6 6,9 4,7 2,6 8,4 29 16 41 22 WSW 1019,6 40 14 0,0
17.12.2018 13:00:00 6,4 3,6 6,4 4,2 2,4 8,4 25 14 41 22 SW 1019,1 40 2 0,0
17.12.2018 12:00:00 6,1 3,5 6,0 3,6 2,2 8,4 27 15 40 22 SW 1018,9 40 9 0,0
17.12.2018 11:00:00 5,8 3,7 5,7 2,9 2,1 8,4 30 16 46 25 SW 1018,4 40 1 0,0
17.12.2018 10:00:00 5,4 3,7 5,1 2,3 2,0 8,4 27 15 36 19 SW 1017,6 40 0 0,0
17.12.2018 09:00:00 5,1 3,8 4,6 1,8 1,9 8,4 26 14 40 21 SSW 1016,6 40 0 0,2
17.12.2018 08:00:00 4,4 3,2 3,7 1,2 1,9 8,5 24 13 32 18 SSW 1016,0 6 0 0,8
17.12.2018 07:00:00 4,4 3,1 3,7 0,5 1,9 8,5 23 12 - - SSW 1015,3 35 0 0,8
17.12.2018 06:00:00 4,8 3,0 3,8 0,3 1,9 8,5 24 13 33 18 S 1014,4 40 0 0,0
17.12.2018 05:00:00 4,5 2,2 3,6 0,3 1,9 8,5 25 14 40 21 S 1014,0 52 0 0,0
17.12.2018 04:00:00 4,5 2,2 3,5 0,3 1,9 8,5 26 14 39 21 S 1013,9 50 0 0,0
17.12.2018 03:00:00 4,5 2,0 3,2 0,3 1,9 8,5 22 12 30 16 S 1013,7 65 0 0,0
17.12.2018 02:00:00 3,8 1,7 2,4 0,3 1,9 8,5 18 10 29 16 SSE 1013,5 64 0 0,0
17.12.2018 01:00:00 4,3 2,3 3,3 0,3 1,9 8,5 21 12 31 17 SSW 1013,6 62 0 0,0
17.12.2018 00:00:00 3,3 2,0 2,6 0,3 1,9 8,5 16 9 34 19 SSW 1014,3 54 0 0,0
16.12.2018 23:00:00 2,5 1,4 1,6 0,2 1,9 8,5 21 12 33 18 SW 1013,8 36 0 0,0
16.12.2018 22:00:00 3,1 1,5 2,1 0,2 1,9 8,6 22 12 30 16 SSW 1013,2 49 0 0,0
16.12.2018 21:00:00 2,8 1,3 1,8 0,2 1,9 8,6 22 12 33 18 SSW 1013,0 40 0 0,0
16.12.2018 20:00:00 2,8 1,2 1,7 0,2 1,9 8,6 19 11 30 16 SSW 1012,6 38 0 0,0
16.12.2018 19:00:00 2,3 0,8 1,0 0,2 1,9 8,6 13 7 23 12 SSW 1012,6 27 0 0,0
16.12.2018 18:00:00 2,4 1,2 1,4 0,2 1,9 8,6 15 8 18 10 SW 1012,2 23 0 0,0
16.12.2018 17:00:00 3,4 1,7 2,6 0,1 1,9 8,6 11 6 23 13 WSW 1012,0 30 0 0,0
16.12.2018 16:00:00 3,2 1,7 2,1 0,1 1,9 8,6 19 10 27 14 SSW 1011,5 35 10 0,0
16.12.2018 15:00:00 3,4 1,8 2,5 0,1 1,9 8,6 17 9 22 12 SW 1011,1 30 1 0,0
16.12.2018 14:00:00 3,6 1,5 3,0 0,0 1,9 8,6 15 8 29 16 SSW 1011,1 35 0 0,0
16.12.2018 13:00:00 3,6 1,5 2,8 0,0 1,9 8,6 21 12 29 15 SSW 1010,6 25 0 0,1
16.12.2018 12:00:00 2,5 1,2 2,3 0,0 1,9 8,6 24 13 39 21 SW 1011,0 9 2 0,0
16.12.2018 11:00:00 1,3 0,4 1,2 0,0 1,9 8,7 27 15 39 21 SSW 1011,1 9 0 0,0
16.12.2018 10:00:00 1,1 -0,1 0,9 -0,1 1,9 8,7 21 12 35 19 SSW 1011,2 12 0 0,0
16.12.2018 09:00:00 0,7 -1,1 0,4 -0,1 1,9 8,7 27 14 42 23 SW 1010,9 15 0 0,0
16.12.2018 08:00:00 0,5 -1,4 0,1 -0,1 1,9 8,7 24 13 37 20 SSW 1010,4 18 0 0,0
16.12.2018 07:00:00 0,2 -2,1 -0,3 -0,1 1,9 8,7 22 12 - - SSW 1010,3 20 0 0,0
16.12.2018 06:00:00 0,4 -2,5 -0,3 -0,1 1,9 8,7 18 10 27 14 S 1010,4 20 0 0,0
16.12.2018 05:00:00 0,2 -1,2 -0,1 -0,1 1,9 8,7 8 5 19 10 SW 1010,7 13 0 0,6
16.12.2018 04:00:00 0,2 -1,1 -0,1 -0,2 1,9 8,7 13 7 24 13 SE 1010,8 3,5 0 1,0
16.12.2018 03:00:00 -0,6 -1,6 -0,6 -0,2 2,0 8,7 10 5 20 11 E 1011,7 4,4 0 0,7
16.12.2018 02:00:00 -0,8 -2,1 -0,6 -0,3 2,0 8,7 14 8 18 10 ESE 1012,5 4,4 0 0,9
16.12.2018 01:00:00 -0,3 -4,6 -0,8 -0,3 2,0 8,7 9 5 29 16 S 1013,6 6 0 0,0
16.12.2018 00:00:00 0,0 -6,2 -0,5 -0,3 2,0 8,8 17 9 34 18 SE 1013,0 28 0 0,0
15.12.2018 23:00:00 -0,4 -6,3 -1,0 -0,4 2,0 8,8 21 12 32 17 SE 1013,9 27 0 0,0
15.12.2018 22:00:00 -0,9 -6,4 -1,6 -0,4 2,1 8,8 23 13 34 18 SE 1015,6 - 0 0,0
15.12.2018 21:00:00 -1,4 -6,6 -2,4 -0,4 2,1 8,8 19 10 25 14 SE 1016,8 26 0 0,0
15.12.2018 20:00:00 -1,7 -6,5 -3,6 -0,3 2,1 8,8 16 9 30 16 SE 1017,7 25 0 0,0
15.12.2018 19:00:00 -1,7 -6,3 -3,2 -0,2 2,1 8,8 22 12 31 17 ESE 1018,4 26 0 0,0
15.12.2018 18:00:00 -1,7 -6,2 -3,4 -0,1 2,1 8,8 19 10 27 15 SE 1019,9 27 0 0,0
15.12.2018 17:00:00 -1,0 -6,3 -2,5 0,1 2,1 8,8 22 12 31 17 SE 1020,6 25 0 0,0
15.12.2018 16:00:00 -0,7 -6,3 -2,1 0,1 2,1 8,8 18 10 25 14 SE 1021,5 30 44 0,0
15.12.2018 15:00:00 -0,3 -6,0 -0,2 0,1 2,1 8,8 16 9 29 16 SE 1022,7 40 25 0,0
15.12.2018 14:00:00 0,1 -6,0 1,2 0,1 2,2 8,9 16 9 27 14 SE 1023,1 30 21 0,0
15.12.2018 13:00:00 -0,4 -6,2 -0,2 0,0 2,2 8,9 15 8 29 15 SSE 1024,0 40 0 0,0
15.12.2018 12:00:00 -0,8 -6,7 -0,4 0,0 2,2 8,9 16 8 26 14 SE 1024,8 40 0 0,0
15.12.2018 11:00:00 -0,9 -6,8 -0,9 -0,1 2,2 8,9 17 9 24 13 SE 1025,8 30 0 0,0
15.12.2018 10:00:00 -1,1 -6,6 -1,3 -0,1 2,2 8,9 9 5 23 13 SSE 1025,9 30 0 0,0
15.12.2018 09:00:00 -1,3 -7,0 -1,7 -0,1 2,2 8,9 14 8 26 14 SE 1025,8 30 0 0,0
15.12.2018 08:00:00 -1,3 -7,5 -1,7 -0,1 2,2 8,9 14 8 24 13 SSE 1025,7 30 0 0,0
15.12.2018 07:00:00 -1,2 -6,9 -1,7 0,0 2,3 8,9 9 5 26 14 SSE 1025,8 25 0 0,0
15.12.2018 06:00:00 -1,2 -6,3 -1,6 0,0 2,3 8,9 9 5 15 8 SSE 1025,9 25 0 0,0
15.12.2018 05:00:00 -1,0 -7,3 -1,4 0,0 2,3 8,9 9 5 18 10 SE 1025,9 44 0 0,0
15.12.2018 04:00:00 -0,8 -6,8 -1,3 0,0 2,3 8,9 9 5 16 9 SE 1026,1 34 0 0,0
15.12.2018 03:00:00 -0,9 -5,9 -1,4 0,1 2,3 8,9 7 4 15 8 S 1026,5 34 0 0,0
15.12.2018 02:00:00 -0,6 -6,9 -1,3 0,1 2,3 9,0 9 5 21 11 ESE 1026,2 46 0 0,0
15.12.2018 01:00:00 -0,4 -6,8 -1,0 0,1 2,4 9,0 14 7 20 11 SSE 1025,7 45 0 0,0
15.12.2018 00:00:00 -0,4 -6,3 -1,0 0,1 2,4 9,0 13 7 24 13 ESE 1025,3 40 0 0,0
14.12.2018 23:00:00 -0,4 -6,4 -1,0 0,2 2,4 9,0 13 7 22 12 ESE 1025,2 44 0 0,0
14.12.2018 22:00:00 -0,4 -5,8 -1,1 0,2 2,4 9,0 8 5 16 8 ESE 1025,4 34 0 0,0
14.12.2018 21:00:00 -0,3 -5,9 -0,9 0,2 2,4 9,0 10 5 20 11 SSE 1025,7 37 0 0,0
14.12.2018 20:00:00 -0,2 -6,1 -0,7 0,2 2,4 9,0 13 7 25 14 SE 1025,3 35 0 0,0
14.12.2018 19:00:00 -0,2 -5,7 -0,9 0,2 2,4 9,0 11 6 18 10 ESE 1025,0 40 0 0,0
14.12.2018 18:00:00 -0,6 -4,4 -1,1 0,2 2,4 9,0 9 5 19 10 ENE 1024,7 24 0 0,0
14.12.2018 17:00:00 -0,2 -5,9 -0,8 0,2 2,4 9,0 15 8 26 14 E 1024,3 40 0 0,0
14.12.2018 16:00:00 -0,2 -6,1 -0,5 0,2 2,4 9,0 18 10 28 15 E 1023,6 40 0 0,0
14.12.2018 15:00:00 0,1 -5,9 -0,1 0,2 2,4 9,0 18 10 30 16 E 1023,0 40 3 0,0
14.12.2018 14:00:00 0,3 -6,1 0,4 0,2 2,5 9,1 13 7 24 13 E 1022,6 45 0 0,0
14.12.2018 13:00:00 0,2 -5,8 0,5 0,1 2,5 9,1 21 11 31 17 E 1022,6 45 0 0,0
14.12.2018 12:00:00 -0,1 -5,9 0,0 0,1 2,5 9,1 19 10 33 18 E 1022,9 45 0 0,0
14.12.2018 11:00:00 -0,1 -5,8 -0,3 0,1 2,5 9,1 23 13 32 17 E 1023,0 45 0 0,0
14.12.2018 10:00:00 -0,2 -5,8 -0,6 0,0 2,5 9,1 18 10 25 13 E 1022,9 45 0 0,0
14.12.2018 09:00:00 -0,4 -6,0 -1,0 0,0 2,6 9,1 20 11 38 20 E 1022,2 35 0 0,0
14.12.2018 08:00:00 -0,5 -5,5 -1,0 0,1 2,6 9,1 22 12 34 18 E 1021,5 30 0 0,0
14.12.2018 07:00:00 -0,4 -5,1 -0,9 0,1 2,6 9,1 18 10 31 17 E 1021,0 30 0 0,0
14.12.2018 06:00:00 -0,7 -4,4 -1,2 0,1 2,6 9,1 8 5 26 14 ENE 1021,0 30 0 0,0
14.12.2018 05:00:00 -0,4 -5,5 -1,1 0,1 2,7 9,1 17 9 27 15 E 1020,7 39 0 0,0
14.12.2018 04:00:00 -0,6 -5,1 -1,3 0,1 2,7 9,1 18 10 26 14 E 1020,6 36 0 0,0
14.12.2018 03:00:00 -0,5 -4,9 -1,1 0,1 2,7 9,1 16 9 22 12 ENE 1021,0 36 0 0,0
14.12.2018 02:00:00 -0,6 -4,7 -1,7 0,2 2,8 9,1 17 9 24 13 ENE 1020,7 34 0 0,0
14.12.2018 01:00:00 -0,5 -4,9 -2,0 0,2 2,8 9,1 15 8 37 20 ENE 1020,8 39 0 0,0
14.12.2018 00:00:00 -0,3 -5,5 -1,7 0,3 2,8 9,2 22 12 32 17 E 1020,7 41 0 0,0
13.12.2018 23:00:00 0,0 -5,7 -0,9 0,3 2,9 9,2 22 12 35 19 E 1020,7 49 0 0,0
13.12.2018 22:00:00 -0,3 -5,3 -1,3 0,4 2,9 9,2 18 10 28 15 E 1020,9 47 0 0,0
13.12.2018 21:00:00 -0,4 -4,7 -2,0 0,5 2,9 9,2 18 10 27 15 E 1020,4 41 0 0,0
13.12.2018 20:00:00 -0,5 -4,5 -1,6 0,5 3,0 9,2 18 10 23 12 E 1020,3 35 0 0,0
13.12.2018 19:00:00 -1,5 -4,6 -3,8 0,6 3,0 9,2 12 7 17 9 ENE 1020,0 28 0 0,0
13.12.2018 18:00:00 -1,2 -4,5 -3,8 0,7 3,0 9,2 12 6 19 10 ENE 1020,0 27 0 0,0
13.12.2018 17:00:00 -0,1 -4,2 -2,0 0,7 3,0 9,2 16 9 26 14 E 1019,8 31 4 0,0
13.12.2018 16:00:00 0,6 -4,1 0,2 0,6 3,0 9,2 19 11 35 19 E 1019,4 32 60 0,0
13.12.2018 15:00:00 0,7 -3,8 1,1 0,6 3,1 9,2 22 12 33 18 E 1019,3 39 54 0,0
13.12.2018 14:00:00 0,8 -3,3 1,6 0,5 3,1 9,2 22 12 47 25 E 1019,5 37 51 0,0
13.12.2018 13:00:00 0,4 -3,8 0,2 0,5 3,1 9,2 29 16 45 25 E 1019,8 32 48 0,0
13.12.2018 12:00:00 0,1 -3,2 -0,6 0,4 3,2 9,2 26 14 41 22 E 1020,4 34 45 0,0
13.12.2018 11:00:00 0,0 -2,7 -0,2 0,4 3,2 9,2 28 15 39 21 E 1020,7 32 60 0,0
13.12.2018 10:00:00 -0,7 -2,2 -1,2 0,4 3,3 9,2 22 12 27 15 E 1020,9 28 41 0,0
13.12.2018 09:00:00 -1,2 -2,1 -2,6 0,5 3,4 9,2 17 9 24 13 E 1021,0 18 0 0,0
13.12.2018 08:00:00 -1,3 -2,0 -2,9 0,6 3,4 9,3 15 8 19 10 E 1020,6 10 0 0,0
13.12.2018 07:00:00 -0,6 -1,5 -1,8 0,7 3,5 9,3 15 8 20 11 E 1020,8 15 0 0,0
13.12.2018 06:00:00 -0,6 -1,6 -2,5 0,8 3,5 9,3 14 7 19 10 E 1021,2 18 0 0,0
13.12.2018 05:00:00 -0,3 -1,4 -1,6 0,8 3,6 9,3 16 9 22 12 E 1021,4 21 0 0,0

tt = temperature
td = dewpoint
tt 5cm = temperature 5cm
tt -5cm = temperature -5cm
tt -20cm = temperature -20cm
tt -100cm = temperature -100cm
ff = wind speed
fx = gusts
dd = wind direction
ppp = reduced air pressure
vv = visibility
sd = sunshine duration
rr = precipitation

Next stations